Albany, NY

9:39 PM EST on December 14, 2019 (GMT -0500)
Albany International

Weather History for KALB - October, 2019

Change the Weather History Date:

Thursday, October 3, 2019

  Actual Average Record
Temperature  
Mean Temperature 49 °F 55 °F  
Max Temperature 52 °F 65 °F 83 °F (1967)
Min Temperature 46 °F 44 °F 29 °F (1945)
Degree Days  
Heating Degree Days 16 11  
Month to date heating degree days 19 31  
Since 1 July heating degree days 96 198  
Cooling Degree Days 0 0  
Month to date cooling degree days 4 0  
Year to date cooling degree days 771 594  
Moisture  
Dew Point 42 °F    
Average Humidity 71    
Maximum Humidity 86    
Minimum Humidity 56    
Precipitation  
Precipitation 0.29 in 0.12 in 1.62 in (1979)
Month to date precipitation 1.04 0.36  
Year to date precipitation 32.25 29.81  
Snow  
Snow 0.00 in 0.00 in T in (1974)
Month to date snowfall 0.0 0.0  
Since 1 July snowfall 0.0 0.0  
Since 1 September snowfall 0.0 0.0  
Snow Depth 0.00 in    
Sea Level Pressure  
Sea Level Pressure 30.11 in    
Wind  
Wind Speed 6 mph (SE)    
Max Wind Speed 15 mph    
Max Gust Speed 22 mph    
Visibility 6 miles    
Events Rain    
T = Trace of Precipitation, MM = Missing Value Source: NWS Daily Summary

Daily Weather History Graph

Daily Weather History Graph

Search for Another Location

Airport or City:

Astronomy

Oct. 03, 2019 Rise Set
Actual Time 6:54 AM EDT 6:33 PM EDT
Civil Twilight 6:26 AM EDT 7:01 PM EDT
Nautical Twilight 5:53 AM EDT 7:34 PM EDT
Astronomical Twilight 5:20 AM EDT 8:07 PM EDT
Moon 12:29 PM EDT (10/3) 10:03 PM EDT (10/3)
Length of Visible Light 12h 35m
Length of Day
11h 39m
Waxing Crescent, 29% of the Moon is Illuminated
Oct 3
Waxing Crescent
Oct 5
First Quarter
Oct 13
Full
Oct 21
Last Quarter
Oct 27
New

Hourly Weather History & Observations

Time (EDT) Temp. Windchill Dew Point Humidity Pressure Visibility Wind Dir Wind Speed Gust Speed Precip Events Conditions
12:51 AM 50.0 °F - 35.1 °F 57% 30.14 in 10.0 mi North 9.2 mph - N/A   Overcast
1:51 AM 48.9 °F - 35.1 °F 59% 30.16 in 10.0 mi North 8.1 mph - N/A   Mostly Cloudy
2:51 AM 48.0 °F - 35.1 °F 61% 30.16 in 10.0 mi North 12.7 mph - N/A   Mostly Cloudy
3:51 AM 46.9 °F - 36.0 °F 66% 30.15 in 10.0 mi NNE 10.4 mph - N/A   Mostly Cloudy
4:51 AM 46.9 °F - 37.0 °F 68% 30.16 in 10.0 mi North 6.9 mph - N/A   Overcast
5:51 AM 46.0 °F 43.1 °F 37.0 °F 71% 30.19 in 10.0 mi North 5.8 mph - N/A   Overcast
6:51 AM 46.0 °F 42.5 °F 37.0 °F 71% 30.20 in 10.0 mi NNE 6.9 mph - N/A   Overcast
7:51 AM 46.0 °F 43.1 °F 37.0 °F 71% 30.22 in 10.0 mi North 5.8 mph - N/A   Overcast
8:51 AM 46.9 °F - 37.9 °F 71% 30.20 in 10.0 mi North 5.8 mph - 0.00 in   Overcast
9:24 AM 46.9 °F - 37.9 °F 71% 30.20 in 10.0 mi NNE 6.9 mph - N/A   Overcast
9:51 AM 48.0 °F - 39.0 °F 71% 30.20 in 10.0 mi North 5.8 mph - 0.00 in   Overcast
10:51 AM 48.0 °F - 39.0 °F 71% 30.21 in 10.0 mi Calm Calm - 0.00 in   Overcast
11:51 AM 48.9 °F - 39.9 °F 71% 30.17 in 10.0 mi Calm Calm - 0.00 in   Overcast
12:51 PM 51.1 °F - 43.0 °F 74% 30.17 in 10.0 mi Calm Calm - 0.00 in Rain Light Rain
1:15 PM 50.0 °F - 42.1 °F 74% 30.16 in 10.0 mi South 4.6 mph - 0.00 in   Overcast
1:51 PM 50.0 °F - 43.0 °F 77% 30.15 in 3.0 mi Calm Calm - 0.00 in Rain Light Rain
2:04 PM 50.0 °F - 44.1 °F 80% 30.14 in 2.0 mi South 4.6 mph - 0.00 in Rain Light Rain
2:41 PM 50.0 °F - 45.0 °F 83% 30.13 in 5.0 mi SSE 3.5 mph - 0.01 in Rain Light Rain
2:51 PM 51.1 °F - 46.0 °F 83% 30.13 in 7.0 mi South 6.9 mph - 0.01 in   Overcast
3:21 PM 51.1 °F - 45.0 °F 80% 30.11 in 8.0 mi SE 5.8 mph - 0.00 in   Light Drizzle
3:51 PM 51.1 °F - 46.0 °F 83% 30.10 in 6.0 mi ESE 5.8 mph - 0.00 in   Light Drizzle
4:01 PM 51.1 °F - 46.0 °F 83% 30.10 in 2.5 mi South 6.9 mph - 0.00 in Rain Light Rain
4:11 PM 50.0 °F - 45.0 °F 83% 30.09 in 1.0 mi South 9.2 mph - 0.01 in Rain Light Rain
4:30 PM 50.0 °F - 46.0 °F 86% 30.08 in 1.8 mi SSE 10.4 mph - 0.05 in Rain Light Rain
4:43 PM 50.0 °F - 46.0 °F 86% 30.08 in 2.5 mi SSE 9.2 mph 17.3 mph 0.06 in Rain Light Rain
4:51 PM 50.0 °F - 46.0 °F 86% 30.09 in 2.5 mi SSE 9.2 mph - 0.07 in Rain Light Rain
5:51 PM 50.0 °F - 46.0 °F 86% 30.07 in 1.5 mi SSE 6.9 mph - 0.05 in Rain Light Rain
6:01 PM 50.0 °F - 46.0 °F 86% 30.06 in 1.5 mi SSE 5.8 mph - 0.01 in Rain Light Rain
6:26 PM 50.0 °F - 46.0 °F 86% 30.05 in 2.5 mi SE 6.9 mph - 0.03 in Rain Light Rain
6:45 PM 50.0 °F - 46.4 °F 87% 30.05 in 5.0 mi SE 5.8 mph - 0.03 in   Light Drizzle
6:51 PM 50.0 °F - 46.0 °F 86% 30.05 in 5.0 mi SE 6.9 mph - 0.03 in   Light Drizzle
7:23 PM 50.0 °F - 46.0 °F 86% 30.04 in 5.0 mi SE 9.2 mph - 0.01 in   Light Drizzle
7:51 PM 50.0 °F - 46.0 °F 86% 30.04 in 5.0 mi Variable 4.6 mph - 0.01 in Rain Light Rain
8:51 PM 50.0 °F - 46.0 °F 86% 30.02 in 5.0 mi SSE 6.9 mph - 0.02 in Rain Light Rain
9:01 PM 50.0 °F - 46.0 °F 86% 30.01 in 4.0 mi SSE 9.2 mph 16.1 mph 0.00 in Rain Light Rain
9:51 PM 50.0 °F - 46.0 °F 86% 29.99 in 5.0 mi SSE 6.9 mph 20.7 mph 0.01 in   Light Drizzle
10:51 PM 51.1 °F - 46.9 °F 86% 29.97 in 3.0 mi SSE 11.5 mph - 0.05 in Rain Light Rain
11:51 PM 51.1 °F - 48.0 °F 89% 29.95 in 6.0 mi South 8.1 mph - 0.03 in   Light Drizzle